AEE4ED LGAV-EDDH

Flight info

Callsign AEE4ED
Flight time N/A
Altitude 36000
Route KRO T162 NEVRA UT162 KOROS UN133 PEREN UL863 EVIVI DCT OKANA DCT NEPOS DCT TONDO/N0445F380 DCT GITAS DCT NAVTI DCT BODAL DCT ODLIV DCT HDO M748 RENDO DCT BOLBO DCT SOGMA M748 RARUP RARUP3S
Aircraft A320/M-SDE3FGHIRWY/LB1

Departure

Time N/A
Airport Athens Eleftherios Venizelos International Airport (LGAV)

Arrival

Time 2026-04-26 09:28
Airport Hamburg Helmut Schmidt Airport (EDDH)
Time Latitude Longitude Altitude Speed Heading
2026-04-26 09:04 52.63726 11.90320 35758 ft 414 kts 319°
2026-04-26 09:04 52.65988 11.87416 35093 ft 416 kts 320°
2026-04-26 09:05 52.68282 11.84517 34421 ft 416 kts 320°
2026-04-26 09:05 52.70582 11.81621 33663 ft 416 kts 320°
2026-04-26 09:05 52.72880 11.78723 32909 ft 415 kts 320°
2026-04-26 09:05 52.75168 11.75825 32180 ft 415 kts 320°
2026-04-26 09:06 52.77456 11.72923 31467 ft 414 kts 320°
2026-04-26 09:06 52.79736 11.70027 30773 ft 414 kts 320°
2026-04-26 09:06 52.82016 11.67125 30039 ft 414 kts 320°
2026-04-26 09:06 52.84288 11.64228 29226 ft 412 kts 320°
2026-04-26 09:07 52.86548 11.61339 28458 ft 410 kts 320°
2026-04-26 09:07 52.88800 11.58457 27714 ft 407 kts 320°
2026-04-26 09:07 52.91030 11.55602 26987 ft 404 kts 321°
2026-04-26 09:07 52.93245 11.52766 26279 ft 400 kts 321°
2026-04-26 09:08 52.95439 11.49949 25590 ft 397 kts 321°
2026-04-26 09:08 52.97585 11.47192 24923 ft 394 kts 321°
2026-04-26 09:08 52.99765 11.44386 24254 ft 390 kts 322°
2026-04-26 09:08 53.01869 11.41676 23575 ft 386 kts 322°
2026-04-26 09:09 53.03973 11.38958 22968 ft 379 kts 322°
2026-04-26 09:09 53.06040 11.36286 22390 ft 374 kts 322°
2026-04-26 09:09 53.08080 11.33655 21808 ft 369 kts 322°
2026-04-26 09:09 53.10105 11.31052 21302 ft 367 kts 322°
2026-04-26 09:10 53.12117 11.28467 20793 ft 364 kts 322°
2026-04-26 09:10 53.14154 11.25968 20279 ft 363 kts 324°
2026-04-26 09:10 53.16226 11.23563 19791 ft 363 kts 325°
2026-04-26 09:10 53.18315 11.21210 19311 ft 361 kts 326°
2026-04-26 09:11 53.20390 11.18884 18837 ft 359 kts 326°
2026-04-26 09:11 53.22448 11.16559 18357 ft 356 kts 325°
2026-04-26 09:11 53.24481 11.14236 17834 ft 352 kts 325°
2026-04-26 09:11 53.26413 11.11762 17307 ft 349 kts 315°
2026-04-26 09:12 53.27827 11.08489 16974 ft 350 kts 298°
2026-04-26 09:12 53.28538 11.04583 16680 ft 356 kts 282°
2026-04-26 09:12 53.28846 11.00476 16376 ft 356 kts 281°
2026-04-26 09:12 53.29131 10.96369 16075 ft 355 kts 280°
2026-04-26 09:13 53.29408 10.92280 15780 ft 354 kts 280°
2026-04-26 09:13 53.29684 10.88205 15478 ft 352 kts 280°
2026-04-26 09:13 53.29959 10.84143 15189 ft 351 kts 280°
2026-04-26 09:13 53.30234 10.80094 14882 ft 350 kts 280°
2026-04-26 09:14 53.30504 10.76107 14598 ft 350 kts 280°
2026-04-26 09:14 53.30778 10.72070 14317 ft 349 kts 280°
2026-04-26 09:14 53.31051 10.68048 14038 ft 347 kts 280°
2026-04-26 09:14 53.31320 10.64039 13771 ft 346 kts 280°
2026-04-26 09:15 53.31589 10.60042 13506 ft 345 kts 280°
2026-04-26 09:15 53.31852 10.56062 13243 ft 344 kts 280°
2026-04-26 09:15 53.32111 10.52091 12987 ft 343 kts 279°
2026-04-26 09:15 53.32366 10.48136 12725 ft 341 kts 279°
2026-04-26 09:16 53.32621 10.44192 12467 ft 340 kts 279°
2026-04-26 09:16 53.32877 10.40266 12212 ft 339 kts 279°
2026-04-26 09:16 53.33130 10.36388 11957 ft 329 kts 279°
2026-04-26 09:16 53.33371 10.32655 11706 ft 318 kts 279°
2026-04-26 09:17 53.33594 10.29033 11448 ft 309 kts 279°
2026-04-26 09:17 53.33736 10.26688 11280 ft 304 kts 279°
2026-04-26 09:17 53.34014 10.22058 10949 ft 295 kts 279°
2026-04-26 09:17 53.34214 10.18683 10723 ft 288 kts 279°
2026-04-26 09:18 53.34404 10.15400 10576 ft 279 kts 279°
2026-04-26 09:18 53.34585 10.12207 10176 ft 274 kts 279°
2026-04-26 09:18 53.34763 10.09045 9594 ft 272 kts 279°
2026-04-26 09:18 53.34944 10.05943 9029 ft 270 kts 279°
2026-04-26 09:19 53.35277 10.02883 8474 ft 265 kts 291°
2026-04-26 09:19 53.35912 9.99995 7918 ft 263 kts 294°
2026-04-26 09:19 53.36586 9.97156 7347 ft 262 kts 294°
2026-04-26 09:19 53.37266 9.94330 6804 ft 261 kts 294°
2026-04-26 09:20 53.37729 9.92425 6439 ft 261 kts 294°
2026-04-26 09:20 53.38419 9.89623 5896 ft 260 kts 294°
2026-04-26 09:20 53.39118 9.86845 5349 ft 258 kts 294°
2026-04-26 09:20 53.39825 9.84090 4929 ft 252 kts 294°
2026-04-26 09:21 53.40491 9.81520 4794 ft 236 kts 294°
2026-04-26 09:21 53.41132 9.79049 4470 ft 228 kts 294°
2026-04-26 09:21 53.41764 9.76619 4067 ft 228 kts 294°
2026-04-26 09:21 53.42399 9.74189 3761 ft 227 kts 294°
2026-04-26 09:22 53.43070 9.71788 3488 ft 227 kts 303°
2026-04-26 09:22 53.44182 9.69894 3049 ft 236 kts 329°
2026-04-26 09:22 53.45781 9.68915 3001 ft 252 kts 354°
2026-04-26 09:22 53.47519 9.69185 3008 ft 253 kts 20°
2026-04-26 09:23 53.48987 9.70644 3006 ft 240 kts 45°
2026-04-26 09:23 53.50050 9.72687 3007 ft 225 kts 51°
2026-04-26 09:23 53.51020 9.74639 3005 ft 211 kts 51°
2026-04-26 09:23 53.51930 9.76463 3010 ft 197 kts 51°
2026-04-26 09:24 53.52793 9.78192 2896 ft 190 kts 51°
2026-04-26 09:24 53.53638 9.79889 2694 ft 188 kts 51°
2026-04-26 09:24 53.54465 9.81549 2440 ft 183 kts 51°
2026-04-26 09:24 53.55275 9.83176 2183 ft 180 kts 51°
2026-04-26 09:25 53.56063 9.84760 1927 ft 171 kts 51°
2026-04-26 09:25 53.56800 9.86240 1699 ft 160 kts 51°
2026-04-26 09:25 53.57481 9.87611 1490 ft 147 kts 51°
2026-04-26 09:25 53.58116 9.88889 1306 ft 138 kts 51°
2026-04-26 09:26 53.58723 9.90112 1113 ft 135 kts 51°
2026-04-26 09:26 53.59323 9.91322 917 ft 134 kts 51°
2026-04-26 09:26 53.59921 9.92527 737 ft 134 kts 51°
2026-04-26 09:26 53.60520 9.93735 551 ft 134 kts 51°
2026-04-26 09:27 53.61119 9.94942 361 ft 134 kts 50°
2026-04-26 09:27 53.61719 9.96144 190 ft 134 kts 50°
2026-04-26 09:27 53.62315 9.97355 50 ft 130 kts 50°
2026-04-26 09:27 53.62817 9.98376 44 ft 98 kts 50°
2026-04-26 09:28 53.63095 9.98937 46 ft 49 kts 50°
2026-04-26 09:28 53.63276 9.99331 47 ft 31 kts 68°
2026-04-26 09:28 53.63289 9.99526 47 ft 19 kts 97°
2026-04-26 09:28 53.63278 9.99645 48 ft 10 kts 98°
2026-04-26 09:29 53.63277 9.99661 48 ft 0 kts 98°
2026-04-26 09:29 53.63277 9.99664 48 ft 1 kts 98°
2026-04-26 09:29 53.63270 9.99696 47 ft 4 kts 117°
2026-04-26 09:29 53.63239 9.99740 48 ft 8 kts 147°
2026-04-26 09:30 53.63185 9.99790 48 ft 8 kts 152°
2026-04-26 09:30 53.63150 9.99822 48 ft 7 kts 153°
2026-04-26 09:30 53.63116 9.99852 48 ft 5 kts 152°
2026-04-26 09:30 53.63073 9.99890 48 ft 9 kts 152°
2026-04-26 09:31 53.63008 9.99946 48 ft 12 kts 153°
2026-04-26 09:31 53.62956 10.00051 48 ft 11 kts 64°
2026-04-26 09:31 53.62979 10.00118 48 ft 6 kts 110°
2026-04-26 09:31 53.62948 10.00196 48 ft 10 kts 119°
2026-04-26 09:32 53.62930 10.00274 48 ft 5 kts 108°
2026-04-26 09:32 53.62927 10.00291 48 ft 0 kts 108°